| time (UTC) | temp C | wind direction | speed KPH | gust KPH | rain 1hr cm | rain 24hr cm | rain mn cm | humidity % | barometer mb |
| 20260906112851 | 21 | 231 | 0.0 | 0.0 | 0.00 | 0.13 | 0.13 | 100 | 1013.5 |
| 20260906105548 | 21 | 231 | 0.0 | 0.0 | 0.00 | 0.13 | 0.13 | 100 | 1013.5 |
| 20260906103345 | 21 | 231 | 0.0 | 0.0 | 0.00 | 0.13 | 0.13 | 100 | 1013.2 |
| 20260906100043 | 22 | 231 | 0.0 | 0.0 | 0.00 | 0.13 | 0.13 | 100 | 1013.2 |
| 20260906094939 | 22 | 77 | 3.2 | 1.6 | 0.10 | 0.13 | 0.13 | 100 | 1013.2 |
| 20260906093837 | 22 | 1 | 0.0 | 3.2 | 0.13 | 0.13 | 0.13 | 100 | 1013.2 |
| 20260906092734 | 22 | 111 | 0.0 | 0.0 | 0.13 | 0.13 | 0.13 | 100 | 1012.8 |
| 20260906091631 | 22 | 94 | 1.6 | 8.0 | 0.13 | 0.13 | 0.13 | 100 | 1012.5 |
| 20260906090529 | 22 | 177 | 3.2 | 0.0 | 0.13 | 0.13 | 0.13 | 100 | 1012.8 |
| 20260906085426 | 22 | 280 | 0.0 | 0.0 | 0.08 | 0.08 | 0.08 | 100 | 1013.2 |
| 20260906083224 | 22 | 280 | 0.0 | 0.0 | 0.00 | 0.00 | 0.00 | 100 | 1013.2 |
| 20260906082120 | 22 | 234 | 1.6 | 1.6 | 0.00 | 0.00 | 0.00 | 100 | 1013.8 |
| 20260906075917 | 22 | 62 | 0.0 | 0.0 | 0.00 | 0.00 | 0.00 | 100 | 1013.8 |
| 20260906074815 | 22 | 62 | 0.0 | 4.8 | 0.00 | 0.00 | 0.00 | 100 | 1013.8 |
| 20260906073712 | 22 | 357 | 4.8 | 3.2 | 0.00 | 0.00 | 0.00 | 100 | 1014.2 |
| 20260906072610 | 22 | 335 | 1.6 | 6.4 | 0.00 | 0.00 | 0.00 | 100 | 1013.5 |
| 20260906071507 | 22 | 315 | 1.6 | 3.2 | 0.00 | 0.00 | 0.00 | 100 | 1013.2 |
| 20260906070405 | 22 | 247 | 0.0 | 3.2 | 0.00 | 0.00 | 0.00 | 100 | 1012.8 |
| 20260906065305 | 22 | 215 | 1.6 | 0.0 | 0.00 | 0.00 | 0.00 | 100 | 1012.8 |
| 20260906064159 | 22 | 163 | 3.2 | 4.8 | 0.00 | 0.00 | 0.00 | 100 | 1012.8 |
| 20260906055756 | 22 | 265 | 0.0 | 0.0 | 0.00 | 0.00 | 0.00 | 100 | 1013.2 |
| 20260906054654 | 22 | 265 | 0.0 | 0.0 | 0.00 | 0.00 | 0.00 | 100 | 1012.8 |
| 20260906053551 | 22 | 265 | 0.0 | 0.0 | 0.00 | 0.00 | 0.00 | 100 | 1013.2 |
| 20260906052449 | 22 | 265 | 0.0 | 0.0 | 0.00 | 0.00 | 0.00 | 100 | 1013.5 |
| 20260906042946 | 22 | 186 | 0.0 | 0.0 | 0.00 | 0.00 | 0.00 | 100 | 1013.8 |
| 20260906041843 | 22 | 261 | 0.0 | 0.0 | 0.00 | 0.00 | 0.00 | 100 | 1013.8 |
| 20260906034541 | 22 | 88 | 0.0 | 0.0 | 0.00 | 0.00 | 0.00 | 100 | 1013.8 |
| 20260906033438 | 22 | 88 | 0.0 | 0.0 | 0.00 | 0.00 | 0.00 | 100 | 1013.5 |
| 20260906030136 | 22 | 88 | 0.0 | 0.0 | 0.00 | 0.00 | 0.00 | 100 | 1013.8 |
| 20260906021733 | 22 | 88 | 0.0 | 0.0 | 0.00 | 0.00 | 0.00 | 100 | 1013.5 |
| 20260906015531 | 22 | 88 | 0.0 | 0.0 | 0.00 | 0.00 | 0.00 | 100 | 1013.2 |
| 20260906013329 | 23 | 88 | 0.0 | 0.0 | 0.00 | 0.00 | 0.00 | 100 | 1013.2 |
| 20260906012226 | 23 | 88 | 0.0 | 0.0 | 0.00 | 0.00 | 0.00 | 100 | 1012.8 |
| 20260906011123 | 23 | 319 | 0.0 | 0.0 | 0.00 | 0.00 | 0.00 | 99 | 1012.8 |
| 20260906010021 | 23 | 319 | 0.0 | 0.0 | 0.00 | 0.00 | 0.00 | 98 | 1012.8 |
| 20260906004918 | 24 | 319 | 0.0 | 0.0 | 0.00 | 0.00 | 0.00 | 98 | 1012.8 |
| 20260906003816 | 24 | 319 | 0.0 | 0.0 | 0.00 | 0.00 | 0.00 | 95 | 1012.8 |
| 20260906002713 | 25 | 319 | 0.0 | 0.0 | 0.00 | 0.00 | 0.00 | 94 | 1012.8 |
| 20260906001611 | 25 | 319 | 0.0 | 0.0 | 0.00 | 0.00 | 0.00 | 92 | 1013.2 |
| 20260906000509 | 25 | 319 | 0.0 | 0.0 | 0.00 | 0.00 | 0.00 | 92 | 1013.2 |
| 20260905235406 | 26 | 319 | 0.0 | 0.0 | 0.00 | 0.00 | 0.00 | 91 | 1013.2 |
| 20260905234304 | 26 | 319 | 0.0 | 0.0 | 0.00 | 0.00 | 0.00 | 88 | 1013.2 |
| 20260905233201 | 26 | 319 | 0.0 | 0.0 | 0.00 | 0.00 | 0.00 | 85 | 1013.2 |
| 20260905232059 | 26 | 319 | 0.0 | 0.0 | 0.00 | 0.00 | 0.00 | 83 | 1013.2 |
| 20260905230956 | 26 | 319 | 0.0 | 0.0 | 0.00 | 0.00 | 0.00 | 82 | 1012.8 |
| 20260905225853 | 26 | 319 | 0.0 | 0.0 | 0.00 | 0.00 | 0.00 | 83 | 1012.8 |
| 20260905224751 | 26 | 319 | 0.0 | 0.0 | 0.00 | 0.00 | 0.00 | 87 | 1012.8 |
| 20260905223648 | 26 | 319 | 0.0 | 0.0 | 0.00 | 0.00 | 0.00 | 85 | 1012.8 |
| 20260905220346 | 26 | 18 | 0.0 | 0.0 | 0.00 | 0.00 | 0.00 | 84 | 1013.2 |
| 20260905215244 | 26 | 18 | 0.0 | 0.0 | 0.00 | 0.00 | 0.00 | 79 | 1013.2 |
| 20260905214142 | 27 | 319 | 0.0 | 0.0 | 0.00 | 0.00 | 0.00 | 77 | 1013.5 |
| 20260905213039 | 27 | 319 | 0.0 | 1.6 | 0.00 | 0.00 | 0.00 | 77 | 1013.5 |
| 20260905211937 | 27 | 302 | 0.0 | 0.0 | 0.00 | 0.00 | 0.00 | 74 | 1013.8 |
| 20260905210834 | 27 | 302 | 0.0 | 1.6 | 0.00 | 0.00 | 0.00 | 70 | 1013.8 |
| 20260905205732 | 28 | 163 | 0.0 | 0.0 | 0.00 | 0.00 | 0.00 | 67 | 1013.8 |
| 20260905204629 | 27 | 163 | 0.0 | 3.2 | 0.00 | 0.00 | 0.00 | 67 | 1013.8 |
| 20260905203527 | 27 | 315 | 4.8 | 11.3 | 0.00 | 0.00 | 0.00 | 66 | 1013.8 |
| 20260905202425 | 27 | 337 | 3.2 | 0.0 | 0.00 | 0.00 | 0.00 | 67 | 1014.2 |
| 20260905201322 | 27 | 39 | 0.0 | 4.8 | 0.00 | 0.00 | 0.00 | 68 | 1014.5 |
| 20260905200220 | 27 | 7 | 0.0 | 6.4 | 0.00 | 0.00 | 0.00 | 67 | 1015.2 |
| 20260905195118 | 28 | 307 | 1.6 | 9.7 | 0.00 | 0.00 | 0.00 | 67 | 1014.9 |
| 20260905194015 | 28 | 39 | 0.0 | 6.4 | 0.00 | 0.00 | 0.00 | 68 | 1014.5 |
| 20260905192912 | 29 | 312 | 3.2 | 12.9 | 0.00 | 0.00 | 0.00 | 68 | 1014.2 |
| 20260905191810 | 30 | 291 | 8.0 | 20.9 | 0.00 | 0.00 | 0.00 | 66 | 1014.5 |
| 20260905190708 | 34 | 296 | 6.4 | 6.4 | 0.00 | 0.00 | 0.00 | 58 | 1014.2 |
| 20260905185606 | 35 | 8 | 1.6 | 4.8 | 0.00 | 0.00 | 0.00 | 53 | 1014.2 |
| 20260905184503 | 35 | 341 | 1.6 | 12.9 | 0.00 | 0.00 | 0.00 | 51 | 1014.2 |
| 20260905183401 | 36 | 304 | 1.6 | 9.7 | 0.00 | 0.00 | 0.00 | 48 | 1014.2 |
| 20260905182258 | 35 | 35 | 0.0 | 8.0 | 0.00 | 0.00 | 0.00 | 50 | 1013.8 |
| 20260905181156 | 35 | 267 | 4.8 | 6.4 | 0.00 | 0.00 | 0.00 | 52 | 1014.2 |
| 20260905180054 | 35 | 214 | 3.2 | 8.0 | 0.00 | 0.00 | 0.00 | 52 | 1014.2 |
| 20260905174951 | 34 | 165 | 4.8 | 9.7 | 0.00 | 0.00 | 0.00 | 54 | 1014.5 |
| 20260905173849 | 34 | 86 | 0.0 | 6.4 | 0.00 | 0.00 | 0.00 | 54 | 1014.9 |
| 20260905172747 | 33 | 42 | 1.6 | 3.2 | 0.00 | 0.00 | 0.00 | 60 | 1014.5 |
| 20260905171645 | 32 | 49 | 4.8 | 6.4 | 0.00 | 0.00 | 0.00 | 56 | 1014.9 |
| 20260905170542 | 33 | 268 | 3.2 | 6.4 | 0.00 | 0.00 | 0.00 | 55 | 1014.9 |
| 20260905165440 | 33 | 303 | 0.0 | 4.8 | 0.00 | 0.00 | 0.00 | 56 | 1014.9 |
| 20260905164337 | 33 | 213 | 0.0 | 6.4 | 0.00 | 0.00 | 0.00 | 53 | 1015.2 |
| 20260905163235 | 33 | 310 | 0.0 | 4.8 | 0.00 | 0.00 | 0.00 | 53 | 1015.2 |
| 20260905162133 | 33 | 0 | 1.6 | 6.4 | 0.00 | 0.00 | 0.00 | 58 | 1015.2 |
| 20260905161030 | 32 | 293 | 0.0 | 6.4 | 0.00 | 0.00 | 0.00 | 62 | 1015.2 |
| 20260905155928 | 32 | 325 | 1.6 | 6.4 | 0.00 | 0.00 | 0.00 | 63 | 1015.5 |
| 20260905154825 | 33 | 340 | 1.6 | 8.0 | 0.00 | 0.00 | 0.00 | 63 | 1015.5 |
| 20260905153723 | 33 | 18 | 1.6 | 4.8 | 0.00 | 0.00 | 0.00 | 64 | 1015.5 |
| 20260905152620 | 32 | 328 | 1.6 | 6.4 | 0.00 | 0.00 | 0.00 | 67 | 1015.5 |
| 20260905151518 | 32 | 327 | 0.0 | 4.8 | 0.00 | 0.00 | 0.00 | 67 | 1015.5 |
| 20260905150416 | 32 | 151 | 0.0 | 3.2 | 0.00 | 0.00 | 0.00 | 71 | 1015.5 |
| 20260905145313 | 31 | 49 | 0.0 | 4.8 | 0.00 | 0.00 | 0.00 | 73 | 1015.9 |
| 20260905144211 | 31 | 143 | 3.2 | 4.8 | 0.00 | 0.00 | 0.00 | 76 | 1015.9 |
| 20260905143109 | 30 | 28 | 0.0 | 0.0 | 0.00 | 0.00 | 0.00 | 78 | 1015.9 |
| 20260905142006 | 30 | 166 | 0.0 | 3.2 | 0.00 | 0.00 | 0.00 | 80 | 1015.9 |
| 20260905140903 | 29 | 53 | 0.0 | 4.8 | 0.00 | 0.00 | 0.00 | 84 | 1015.9 |
| 20260905135801 | 28 | 143 | 3.2 | 4.8 | 0.00 | 0.00 | 0.00 | 87 | 1015.9 |
| 20260905134658 | 28 | 153 | 3.2 | 3.2 | 0.00 | 0.00 | 0.00 | 94 | 1015.9 |
| 20260905133556 | 27 | 337 | 0.0 | 0.0 | 0.00 | 0.00 | 0.00 | 100 | 1016.2 |
| 20260905132453 | 26 | 337 | 0.0 | 0.0 | 0.00 | 0.00 | 0.00 | 100 | 1016.2 |
| 20260905131351 | 25 | 337 | 0.0 | 0.0 | 0.00 | 0.00 | 0.00 | 100 | 1016.2 |
| 20260905130249 | 25 | 337 | 0.0 | 0.0 | 0.00 | 0.00 | 0.00 | 100 | 1016.2 |
| 20260905125146 | 24 | 337 | 0.0 | 0.0 | 0.00 | 0.00 | 0.00 | 100 | 1016.2 |
| 20260905124044 | 23 | 337 | 0.0 | 0.0 | 0.00 | 0.00 | 0.00 | 100 | 1016.2 |
| 20260905122941 | 23 | 337 | 0.0 | 0.0 | 0.00 | 0.00 | 0.00 | 100 | 1016.2 |
| 20260905120739 | 22 | 337 | 0.0 | 0.0 | 0.00 | 0.00 | 0.00 | 100 | 1015.9 |
| 20260905115637 | 22 | 337 | 0.0 | 0.0 | 0.00 | 0.00 | 0.00 | 100 | 1015.9 |